GEFSSGP_850_meantemp_072.txt.gz
Temperature
19 20 20 20 23 23 23 22 22 20 20 18 17 17 18 19 19 18 14 12 12 11 10 9 9 9 9 9 9 9 8 8 8 7 7 6 6 6 6 6 5 5 5 5 5 5 5 5 5
20 20 20 22 23 22 23 23 21 21 18 15 14 15 17 18 14 14 14 13 11 10 9 8 9 9 9 9 9 8 8 8 8 7 7 7 6 6 6 6 5 5 5 5 5 5 5 5 5
20 20 21 23 23 23 23 23 22 17 15 15 16 15 17 17 13 14 14 13 11 10 9 9 9 9 9 9 9 8 8 8 8 8 7 7 7 6 6 6 5 5 5 5 5 5 5 5 5
20 21 22 24 23 23 23 22 19 16 14 14 16 17 14 14 14 14 15 13 11 10 9 9 9 9 9 9 9 8 8 8 8 8 8 7 7 7 6 6 6 5 5 5 5 5 5 5 5
20 22 23 23 23 23 22 19 17 18 17 16 15 18 16 15 15 15 15 13 11 10 9 8 9 8 9 9 9 8 8 8 8 8 8 7 7 7 6 6 6 5 5 5 5 5 5 5 6
21 23 23 22 23 23 21 18 17 18 18 15 15 17 16 15 15 15 14 13 11 10 9 8 8 8 8 8 8 8 8 8 8 8 8 7 7 7 6 6 6 5 5 5 5 5 5 6 6
22 23 22 22 22 23 22 17 17 19 18 16 15 17 16 14 14 14 13 11 10 9 9 9 8 8 8 8 8 8 8 8 8 8 8 7 7 6 6 6 6 5 5 5 5 5 5 5 5
20 23 22 22 22 22 21 16 16 17 18 16 14 17 18 13 14 13 12 11 10 9 9 9 8 7 8 8 8 8 8 8 8 8 7 7 7 6 6 5 5 5 5 5 5 5 5 5 5
19 22 22 22 22 22 18 16 15 14 15 13 13 15 14 15 14 13 11 11 10 10 9 9 8 8 8 8 8 8 8 8 7 7 7 7 6 6 6 5 5 5 5 5 5 5 4 4 4
20 21 22 21 21 21 18 17 16 14 15 15 13 13 15 14 14 14 13 13 12 11 10 9 8 8 8 8 8 7 7 7 7 7 7 6 6 6 5 5 5 5 5 4 4 4 4 4 4
20 21 21 19 17 17 17 16 15 16 18 18 17 15 15 14 14 14 14 14 14 12 11 10 9 8 8 8 8 7 7 7 7 7 7 6 6 6 5 5 5 5 4 4 4 4 4 3 3
20 20 18 18 15 15 16 16 15 15 18 18 16 15 16 15 15 15 15 14 13 12 12 11 10 9 8 8 8 7 7 7 7 7 6 6 6 5 5 5 5 4 4 4 4 3 3 3 3
19 19 16 15 14 14 14 15 16 16 16 15 15 15 16 16 16 15 14 13 13 13 12 11 10 9 9 8 8 7 7 7 7 6 6 6 6 5 5 5 5 4 4 4 3 3 3 2 2
18 17 16 15 14 14 14 16 14 16 17 15 14 14 15 15 16 15 14 14 13 13 13 12 11 10 9 8 8 8 7 7 7 6 6 6 5 5 5 5 4 4 4 3 3 2 2 2 1
15 17 19 17 15 15 14 17 17 17 16 16 15 15 15 15 15 15 15 15 15 14 13 12 11 10 9 8 8 7 7 7 7 6 6 6 5 5 5 5 4 4 3 3 2 2 2 1 1
17 18 20 19 16 14 15 20 22 20 17 17 17 16 15 16 16 16 15 15 15 14 13 13 12 11 10 9 8 7 7 7 7 6 6 6 5 5 5 4 4 4 3 3 2 2 1 0 0
19 20 20 20 17 15 16 19 22 20 16 17 18 18 16 15 16 17 17 16 15 14 14 13 12 11 10 9 8 8 7 7 7 6 6 6 5 5 5 4 4 3 3 2 2 1 1 -0 -1
20 20 20 20 19 16 16 18 20 20 18 17 18 18 17 16 17 17 17 17 16 15 14 13 12 12 10 9 8 8 7 7 7 6 6 6 5 5 5 4 4 3 3 2 2 1 0 -0 -1
18 18 19 20 19 15 17 18 20 20 20 19 18 17 17 16 16 15 16 16 16 15 14 14 13 12 11 10 9 9 8 8 7 7 7 6 6 5 5 4 4 3 3 2 1 1 -0 -1 -2
17 18 19 20 16 15 17 17 20 20 19 18 17 17 17 16 15 14 15 16 16 16 15 15 14 13 12 11 11 10 9 8 8 8 7 7 6 5 5 4 4 3 3 2 1 1 -0 -1 -2
17 18 19 18 17 16 15 19 22 22 18 17 16 15 15 15 15 14 14 16 17 16 16 16 15 14 13 12 11 10 9 8 8 8 8 7 6 5 5 4 4 3 3 2 1 1 -0 -1 -2
18 17 16 15 16 18 16 17 21 21 21 21 20 18 16 15 15 15 15 16 17 17 17 16 15 15 14 13 12 11 11 10 11 10 9 8 7 6 5 5 4 3 3 2 1 1 -0 -1 -2
17 15 15 15 15 16 16 16 20 21 22 22 21 19 17 16 16 16 17 17 18 17 17 16 16 15 15 14 13 12 11 11 10 9 9 9 8 7 6 5 4 3 3 2 1 1 -0 -1 -1
15 15 14 14 15 17 17 17 20 23 21 20 20 19 17 16 17 17 18 18 18 18 17 17 16 16 15 15 14 13 13 12 11 10 9 9 8 8 7 6 5 4 3 2 2 1 -0 -1 -1
15 17 18 19 18 19 15 15 19 21 20 19 18 17 16 16 16 17 17 18 18 18 18 17 17 17 16 15 15 15 14 13 12 11 9 9 9 9 8 6 5 4 3 2 2 1 0 -1 -1
16 17 18 18 18 18 15 16 20 21 19 17 16 16 16 16 16 16 17 17 17 17 17 17 17 17 17 16 16 15 15 13 13 12 10 9 9 9 8 6 5 4 3 2 2 1 0 -1 -1
16 16 16 17 17 16 17 17 19 20 20 19 19 17 16 16 15 15 15 16 16 16 16 16 16 16 16 16 15 15 14 14 14 12 10 9 9 8 7 6 5 4 3 2 1 1 0 -1 -1
14 15 15 16 16 17 18 17 19 21 22 21 19 17 16 15 15 14 14 15 15 15 16 16 16 15 15 15 14 14 14 13 13 12 11 10 9 7 6 5 4 3 2 2 1 0 -0 -1 -1
14 14 15 16 16 16 17 18 19 20 20 19 17 16 15 14 14 13 14 14 14 15 15 15 15 15 14 14 14 14 14 13 12 12 11 10 8 7 6 5 4 3 2 1 0 -0 -0 -1 -2
15 16 16 16 17 16 16 18 20 19 18 16 16 15 14 13 13 13 13 13 14 14 14 14 14 14 14 14 13 13 13 12 12 12 11 10 8 7 5 4 3 2 1 0 -0 -1 -1 -2 -2

GEFSSGP_850_meantemp_078.txt.gz
Temperature
20 20 20 21 20 21 22 24 24 24 23 22 22 22 22 22 20 17 15 14 14 14 14 13 12 11 11 10 10 10 9 9 8 8 7 7 7 6 6 6 6 6 6 6 6 6 6 7 7
20 20 20 21 21 21 23 24 24 23 22 21 20 20 21 21 19 18 15 14 14 14 14 13 12 11 11 10 10 10 9 9 9 8 8 7 7 7 6 6 6 6 6 6 6 6 6 6 7
20 20 21 21 21 21 23 24 23 21 21 20 20 20 21 20 18 18 17 15 14 13 13 13 12 11 11 11 10 10 10 9 9 8 8 8 7 7 7 7 7 6 6 6 6 6 6 6 7
20 21 22 22 22 24 25 25 23 21 20 20 21 21 20 18 17 18 17 16 14 13 12 12 12 11 11 11 10 10 10 9 9 9 9 8 8 8 8 7 7 7 6 6 6 7 7 7 7
20 22 21 21 22 24 26 25 23 23 22 20 20 21 19 18 18 18 17 15 14 13 12 12 12 11 11 11 10 10 10 9 9 9 9 9 9 8 8 8 8 8 7 7 7 7 7 7 7
22 23 21 21 23 25 26 25 24 23 23 22 21 20 19 18 18 18 17 15 14 13 12 12 11 11 11 11 10 10 10 9 9 9 9 9 9 9 9 8 8 8 8 8 7 7 7 7 7
22 21 21 21 22 23 25 24 23 23 23 23 21 20 19 18 18 18 17 14 13 12 11 12 11 11 11 10 10 10 9 9 9 9 9 9 9 9 8 8 8 8 8 7 7 7 7 7 7
21 21 21 21 22 23 24 22 22 21 22 22 21 20 20 18 17 17 16 13 12 11 11 11 11 11 11 10 10 10 10 9 9 9 9 9 9 9 8 8 8 8 7 7 7 7 7 7 7
21 20 19 21 22 22 23 22 22 20 20 20 20 20 18 18 17 16 15 13 11 11 11 10 11 11 11 10 10 10 10 9 9 9 9 9 9 8 8 8 8 7 7 7 7 7 7 7 7
22 19 20 22 23 22 22 22 22 21 19 20 20 19 17 17 16 16 16 15 13 12 11 10 10 10 10 10 9 10 10 10 9 9 9 9 9 8 8 8 8 7 7 7 7 7 7 7 7
22 20 21 23 23 22 21 21 21 21 19 20 20 19 18 17 16 16 16 16 16 14 13 11 10 9 9 9 9 9 9 10 9 9 9 9 8 8 8 8 7 7 7 7 7 7 7 7 6
22 21 22 22 22 20 19 20 20 20 20 20 21 21 19 18 17 17 17 16 15 14 14 13 11 10 9 9 9 9 9 10 10 9 9 9 9 8 8 8 8 7 7 7 7 7 7 6 6
21 21 22 22 21 19 19 18 18 19 20 20 20 20 19 18 18 18 17 16 15 15 14 14 12 11 10 9 9 9 9 9 9 9 9 9 9 8 8 8 7 7 7 7 7 6 6 6 6
21 20 20 21 21 20 19 18 18 19 20 20 20 20 19 18 18 17 16 15 14 14 14 14 13 12 11 10 10 9 9 9 9 9 9 9 9 8 8 8 7 7 7 7 6 6 6 6 6
19 18 19 20 21 20 18 17 18 20 20 20 20 20 19 18 17 16 16 16 15 15 14 14 14 12 11 11 10 10 9 9 9 9 9 9 9 8 8 8 7 7 7 6 6 6 6 6 5
19 19 18 22 20 18 17 16 20 22 22 21 21 21 20 19 18 17 16 16 15 14 14 14 13 12 12 11 11 10 10 9 9 9 9 9 9 8 8 8 7 7 7 6 6 6 6 5 5
19 19 20 21 20 19 16 16 19 21 22 22 22 22 21 20 19 18 17 16 15 14 14 13 13 13 12 11 11 10 10 9 9 9 9 9 9 8 8 8 7 7 7 6 6 6 6 5 5
19 19 19 19 21 20 18 18 20 21 22 22 22 22 22 21 21 20 18 17 16 14 13 13 12 12 12 11 10 9 9 9 9 9 9 9 9 9 8 8 7 7 7 6 6 6 5 5 4
19 18 18 19 21 19 18 18 19 20 21 21 21 21 21 20 20 20 19 18 16 15 13 13 12 12 11 11 10 10 11 10 9 9 9 9 9 9 9 8 8 7 7 7 6 6 5 5 4
18 18 18 19 20 19 17 18 19 21 21 21 20 20 19 19 19 19 19 17 16 15 14 13 12 12 12 12 12 12 11 11 10 9 9 9 9 9 9 9 8 8 7 7 6 6 5 5 4
18 18 18 17 17 18 18 18 21 21 22 21 20 19 18 18 18 18 18 17 16 15 14 13 12 12 12 12 11 10 9 9 9 9 10 10 9 9 9 9 8 8 7 7 7 6 5 5 4
18 18 17 17 16 16 18 15 18 21 19 19 19 18 18 17 17 17 17 16 16 15 14 13 12 12 11 11 10 10 10 11 12 11 11 10 9 9 9 8 8 8 7 7 6 6 5 4 4
18 17 16 16 15 15 17 17 18 20 19 18 18 18 18 17 17 17 16 16 15 15 14 13 12 12 11 10 10 10 10 11 10 9 9 9 8 8 8 7 7 7 6 6 6 5 5 4 4
17 16 16 16 15 15 18 18 17 20 20 19 18 18 18 17 17 16 16 16 15 15 14 13 13 12 11 10 10 9 9 9 8 8 8 8 7 7 7 7 6 6 6 5 5 4 3 3 3
16 16 16 16 15 17 18 17 17 20 20 19 18 18 17 16 16 15 15 15 15 14 14 14 13 12 11 10 9 9 9 8 8 8 7 7 7 7 7 6 6 6 5 4 3 3 2 2 2
18 17 16 16 16 17 18 17 18 21 20 20 19 18 17 16 15 15 14 14 14 14 13 13 13 12 11 11 10 10 9 8 8 8 7 7 7 7 6 6 5 5 4 4 3 2 1 1 1
17 17 17 16 16 15 17 19 20 20 19 19 19 17 16 16 15 14 14 14 13 13 13 13 13 12 12 11 11 10 9 9 9 8 7 7 7 6 5 5 5 4 4 3 2 1 1 0 -0
16 15 15 15 15 15 17 18 18 20 19 18 17 17 16 15 14 14 13 13 13 13 13 12 12 12 12 11 11 10 10 9 9 8 8 8 7 6 6 5 4 4 3 3 2 1 0 -0 -1
14 15 15 15 15 14 14 16 19 19 19 18 16 16 15 14 14 13 13 13 13 12 12 12 12 12 11 11 11 10 10 9 9 8 8 8 7 7 6 5 4 4 3 3 2 1 0 -1 -2
17 17 16 14 15 15 14 15 20 20 18 17 16 15 14 14 13 13 13 12 12 12 12 11 11 11 11 10 10 10 10 9 9 9 8 8 8 7 6 5 4 4 3 2 2 1 -0 -1 -2

GEFSSGP_850_meantemp_084.txt.gz
Temperature
19 20 20 20 17 15 17 18 19 19 19 21 21 21 20 19 19 19 20 19 18 17 16 14 13 13 13 12 12 11 11 10 9 9 8 8 8 8 7 7 7 7 7 7 7 7 8 8 8
19 19 20 19 15 16 17 18 18 19 20 21 21 21 20 20 20 20 20 20 18 17 16 15 14 13 13 12 12 12 11 10 9 9 8 8 8 8 7 7 7 7 7 7 7 7 8 8 8
19 19 20 16 16 16 18 19 18 19 20 20 20 20 20 20 20 21 21 20 18 17 16 15 14 13 12 12 12 12 11 10 10 9 9 8 8 8 7 7 7 8 8 8 8 8 8 8 8
20 20 19 16 17 17 18 19 18 18 19 20 20 19 20 20 20 21 20 20 19 18 16 15 14 13 12 12 12 12 11 11 10 9 9 8 8 8 8 8 8 8 8 8 8 8 8 8 8
20 20 17 16 17 17 17 19 19 17 18 19 20 18 19 20 20 20 20 20 19 18 17 15 13 12 12 12 12 12 11 11 10 10 9 9 9 8 9 9 8 8 8 8 8 8 8 8 8
20 17 16 16 17 17 18 20 19 18 19 19 19 18 20 20 20 20 19 19 19 18 17 15 13 12 12 12 11 12 11 11 11 10 10 9 9 9 9 9 9 9 9 9 9 9 8 8 8
20 15 16 17 16 17 19 21 20 20 19 20 20 18 19 20 19 18 18 18 17 17 16 15 13 12 11 11 11 11 11 11 11 10 10 10 10 10 10 10 9 9 9 9 9 9 9 8 8
20 15 17 16 17 17 19 21 21 21 21 21 20 18 19 20 18 17 16 16 16 15 15 15 13 12 11 11 11 11 11 11 11 11 10 10 10 10 10 10 10 10 9 9 9 9 9 9 8
20 15 15 16 17 18 20 20 21 20 20 20 20 20 20 20 18 16 15 14 14 14 14 14 13 13 12 11 11 10 11 11 11 11 11 11 11 10 10 10 10 10 9 9 9 9 9 9 8
19 14 16 17 18 18 19 19 20 19 18 19 19 20 19 19 19 17 17 16 16 16 15 14 13 13 12 11 11 10 10 11 11 11 11 11 11 10 10 10 10 10 9 9 9 9 9 9 9
17 15 16 18 20 19 19 19 20 19 16 18 19 20 19 18 18 18 18 18 17 17 16 15 14 13 12 12 11 11 11 11 11 11 11 11 10 10 10 10 10 10 9 9 9 9 9 9 9
17 17 18 19 20 19 19 19 18 18 19 20 19 19 18 18 18 18 18 18 17 16 16 16 14 13 12 12 11 11 11 11 11 11 11 11 11 10 10 10 10 10 9 9 9 9 9 8 8
17 17 19 19 19 18 18 18 18 19 21 20 19 18 18 18 18 18 18 18 17 16 16 16 15 14 13 12 12 11 11 11 11 11 11 11 11 10 10 10 10 9 9 9 9 8 8 8 8
18 18 18 19 19 18 17 17 16 19 21 20 20 19 19 19 19 18 18 18 17 17 16 16 15 14 13 13 12 12 12 11 11 11 11 11 10 10 10 10 10 9 9 9 8 8 8 8 8
17 16 15 17 17 17 17 16 15 21 20 20 20 20 19 19 19 19 19 19 19 18 17 16 15 14 14 13 13 12 12 11 11 11 11 10 10 10 10 10 9 9 9 8 8 8 8 8 8
16 15 15 16 17 16 17 15 16 20 18 18 19 19 19 19 19 20 20 19 19 18 17 16 15 14 14 13 13 12 12 11 11 11 11 10 10 10 9 9 9 9 8 8 8 8 8 8 8
15 14 15 15 16 16 16 15 15 18 17 17 17 18 19 19 19 20 20 20 19 18 17 16 15 14 14 13 12 11 11 11 11 10 10 10 10 10 9 9 9 9 8 8 8 8 8 7 7
15 15 14 14 15 16 15 14 15 17 17 16 16 17 18 18 19 20 20 19 19 18 17 16 15 14 13 12 11 10 10 10 10 10 10 9 9 9 9 9 8 8 8 7 7 7 7 7 7
15 15 14 14 15 15 14 14 14 16 16 16 16 17 18 18 19 19 19 19 18 18 17 16 15 14 13 12 11 11 11 10 10 10 10 9 9 9 8 8 8 7 7 7 7 7 6 6 6
15 15 13 14 14 15 14 13 14 15 15 16 16 16 17 18 19 19 19 18 18 17 17 16 15 15 14 13 13 12 11 11 10 10 9 9 9 8 8 7 7 7 7 7 6 6 6 6 5
15 15 14 14 13 13 14 14 15 15 15 15 16 16 17 17 17 18 18 17 17 17 16 16 15 15 14 13 12 11 11 10 10 10 10 9 9 8 8 7 7 7 6 6 6 6 5 5 5
14 15 15 15 13 12 13 13 14 15 15 14 15 16 16 17 17 17 17 17 16 16 15 15 14 14 13 13 12 11 11 11 11 10 10 9 9 8 8 7 7 6 6 6 6 5 5 4 4
15 15 14 14 13 12 12 12 12 14 15 14 14 15 16 16 16 16 16 16 16 15 15 14 14 13 13 12 11 11 11 10 10 9 9 9 8 8 7 7 6 6 6 6 5 5 4 4 4
15 14 13 11 11 12 14 12 13 13 14 14 14 15 15 15 15 15 15 15 15 14 14 14 13 13 12 12 11 11 10 10 9 9 9 8 8 8 7 7 6 6 5 5 5 5 4 4 3
14 13 12 13 12 13 13 13 13 14 14 13 13 14 15 15 15 15 14 14 14 14 14 13 13 12 12 11 11 11 10 10 9 9 8 8 8 7 7 7 6 6 6 5 5 4 4 4 3
14 13 13 14 12 12 12 13 13 13 14 15 15 15 14 14 14 14 13 13 13 13 13 13 13 12 12 11 11 10 10 10 9 9 8 8 8 8 7 7 6 6 5 5 4 4 4 3 3
15 13 12 11 12 11 11 12 13 13 13 13 13 14 14 14 14 13 13 13 13 13 12 12 12 12 11 11 10 10 10 9 9 9 8 8 8 7 7 6 6 5 5 5 4 4 4 3 3
14 12 11 11 12 11 11 12 13 14 13 12 12 13 14 14 13 13 13 12 12 12 12 11 11 11 11 10 10 9 9 9 8 8 8 7 7 7 6 6 5 5 5 4 4 4 3 3 3
13 13 12 10 10 10 11 12 13 14 13 12 12 14 14 13 13 13 12 12 12 11 11 11 10 10 10 10 9 9 8 8 8 7 7 7 7 7 6 6 5 5 5 4 4 3 3 3 3
12 12 11 11 11 9 9 11 13 13 12 13 13 13 13 13 12 12 12 11 11 10 10 10 9 9 9 9 8 8 8 7 7 7 7 7 6 6 6 5 5 5 4 4 3 3 3 2 2

GEFSSGP_850_meantemp_090.txt.gz
Temperature
18 19 19 20 16 14 16 17 17 18 18 19 19 19 17 17 17 18 21 20 20 19 18 17 15 14 13 12 12 11 11 11 10 10 10 9 9 9 8 8 8 8 8 8 8 9 9 9 9
18 19 19 19 15 15 16 16 17 17 19 19 20 19 19 19 20 21 21 21 20 19 18 17 15 14 13 12 12 12 11 11 10 10 10 9 9 9 8 8 8 8 8 9 9 9 9 9 9
18 19 19 14 15 15 17 18 17 18 19 19 19 19 19 20 21 21 21 20 20 19 18 17 15 14 12 12 11 11 11 11 10 10 9 9 9 9 8 8 8 8 9 9 9 9 9 9 10
19 19 18 14 17 16 17 17 17 17 18 19 19 19 20 20 21 21 20 20 20 19 18 17 15 14 12 12 11 11 11 10 10 10 9 9 9 9 9 9 9 9 9 9 9 9 10 10 10
19 19 15 15 16 16 16 17 17 17 18 18 18 18 20 21 21 21 20 20 20 19 18 17 15 13 12 11 11 11 11 10 10 10 9 9 9 9 9 9 9 9 9 9 9 10 10 10 10
19 17 14 15 16 16 16 18 17 17 17 18 18 18 20 21 21 20 20 19 19 18 18 16 15 13 12 11 11 11 10 10 10 10 9 9 9 9 9 9 9 9 9 9 9 10 9 9 9
19 14 15 16 15 16 17 19 18 18 18 19 19 18 20 21 21 20 19 19 18 18 17 16 15 13 12 11 11 10 10 10 10 9 9 9 9 9 9 9 9 9 9 9 9 9 9 9 9
19 14 16 15 16 16 18 19 19 19 19 20 19 18 20 20 20 20 19 19 18 17 16 16 15 13 11 11 11 10 10 10 10 9 9 9 9 9 8 9 9 9 9 9 9 9 9 9 9
19 14 14 15 16 16 18 18 19 19 19 19 20 20 20 20 19 19 19 19 18 17 16 15 15 13 12 11 10 10 10 9 9 9 9 9 9 9 9 9 9 9 9 9 9 9 9 9 9
18 14 15 15 15 16 18 18 18 18 18 18 19 20 19 19 19 18 19 19 19 18 18 16 15 14 12 11 10 10 10 9 9 9 9 9 10 9 9 9 9 9 9 9 9 9 9 9 9
17 15 15 16 18 17 17 17 18 17 15 18 19 19 19 19 18 18 18 18 19 19 18 17 15 14 13 12 11 10 10 9 9 9 9 10 10 9 9 9 9 9 9 9 9 9 9 9 8
15 15 16 17 18 17 17 17 17 17 18 19 19 18 18 18 18 18 18 18 18 18 18 17 16 14 13 12 11 11 10 10 10 10 10 10 10 10 9 9 9 9 9 9 8 8 8 8 8
15 15 17 17 17 16 16 16 16 17 19 18 18 18 18 18 19 19 18 17 17 17 17 17 16 15 14 13 12 11 11 11 10 10 10 10 10 9 9 9 9 9 8 8 8 8 8 8 8
15 15 16 16 16 15 15 15 14 18 18 19 18 18 18 18 18 18 18 18 18 17 17 17 16 15 14 13 12 12 11 11 10 10 10 9 9 9 9 9 8 8 8 8 8 7 7 7 7
15 14 13 15 16 16 15 15 14 18 18 18 18 17 17 18 18 18 18 18 18 17 17 16 16 15 14 13 13 12 11 11 10 10 9 9 9 9 9 8 8 8 8 7 7 7 7 7 7
15 14 14 15 15 15 16 15 15 16 16 16 17 17 17 17 18 18 18 18 18 17 17 16 15 15 14 13 13 12 11 11 10 10 9 9 9 9 8 8 8 8 7 7 7 7 7 7 7
13 13 14 14 14 15 15 14 14 16 15 15 16 16 17 17 18 18 18 19 18 18 17 16 15 15 14 13 12 12 11 10 10 10 9 9 9 8 8 8 8 8 7 7 7 7 7 7 7
15 14 14 13 14 14 13 12 12 15 14 14 15 16 16 17 17 18 18 18 18 18 17 16 15 15 14 13 12 11 11 10 10 10 9 9 9 8 8 8 8 7 7 7 7 7 6 6 6
14 14 13 12 13 13 12 12 12 13 14 14 15 16 16 16 17 17 18 18 18 17 17 16 15 15 14 13 13 12 11 11 10 10 10 9 9 9 8 8 8 7 7 7 7 6 6 6 6
13 13 12 12 13 13 12 12 12 13 13 13 14 15 16 17 17 17 17 17 17 16 16 15 15 14 14 13 12 11 11 10 10 10 10 9 9 9 8 8 8 7 7 7 6 6 6 5 5
13 12 13 13 12 12 12 14 14 14 14 14 14 15 15 16 16 16 16 16 16 16 15 15 14 14 13 12 11 11 11 10 10 10 10 10 9 9 8 8 8 7 7 6 6 6 5 5 5
13 13 13 13 12 11 12 12 13 13 14 14 14 15 15 15 15 15 16 15 15 15 15 14 14 13 13 12 12 11 11 11 10 10 10 9 9 8 8 8 7 7 6 6 6 6 5 5 4
13 14 13 13 12 11 11 11 12 12 13 13 13 14 14 15 15 15 15 14 14 14 14 14 13 13 12 12 11 11 11 10 10 10 9 9 9 8 8 7 7 7 6 6 6 5 5 5 4
13 12 11 9 9 12 12 11 12 11 12 13 13 14 14 14 14 14 14 14 14 13 13 13 13 12 12 12 11 11 11 10 10 10 9 9 9 8 8 7 7 7 6 6 6 5 5 4 4
13 12 12 13 12 12 12 11 11 12 12 12 12 14 14 14 14 14 13 13 13 13 12 12 12 12 11 11 11 10 10 10 10 9 9 8 8 8 8 7 7 7 6 6 6 5 5 4 4
13 12 12 13 12 11 11 10 11 11 10 12 13 14 14 14 13 13 13 12 12 12 12 11 11 11 11 10 10 10 9 9 9 8 8 8 8 7 7 7 7 6 6 6 5 5 5 4 4
12 11 11 10 11 10 10 10 10 11 11 11 12 13 14 13 13 12 12 12 11 11 11 11 11 10 10 10 9 9 9 8 8 8 7 7 7 7 7 6 6 6 6 6 5 5 5 4 4
12 10 9 10 11 11 11 10 11 13 12 11 11 12 13 13 12 12 12 11 11 11 10 10 10 9 9 9 8 8 8 7 7 7 7 6 6 6 6 6 6 6 5 5 5 4 4 3 3
11 11 10 8 9 10 11 11 11 12 11 10 11 12 12 12 12 11 11 11 10 10 10 9 9 9 8 8 7 7 7 6 6 6 6 6 6 6 6 5 5 5 5 4 4 4 3 3 3
11 10 9 11 10 8 8 10 12 11 11 11 11 11 11 11 11 11 11 10 10 9 9 8 8 8 7 7 6 6 6 6 6 6 5 5 5 5 5 5 4 4 4 3 3 3 2 2 2

GEFSSGP_850_meantemp_096.txt.gz
Temperature
18 19 19 20 22 22 22 23 23 23 23 22 21 22 23 23 23 22 21 21 20 19 18 17 15 14 13 13 12 12 12 11 11 10 10 10 10 9 9 9 9 9 9 9 9 9 9 9 10
18 19 19 21 22 22 22 23 23 23 22 21 21 21 22 23 21 21 21 21 20 19 18 17 16 14 13 13 12 12 12 11 11 10 10 10 10 9 9 9 9 9 9 9 9 9 9 10 10
18 19 20 23 22 22 22 23 23 22 20 20 21 21 22 23 21 20 21 20 20 19 18 17 16 15 14 13 12 12 11 11 11 10 10 10 9 9 9 9 9 9 9 9 9 9 9 9 10
18 19 21 23 22 22 22 23 22 22 21 20 21 22 21 21 21 21 21 20 20 19 18 17 16 15 14 13 12 12 11 11 10 10 10 9 9 9 9 9 9 9 9 9 9 9 9 9 9
19 21 22 22 22 22 22 22 21 22 22 21 21 23 22 21 21 21 20 20 19 19 18 17 16 15 14 13 12 11 11 11 10 10 10 9 9 9 9 9 9 9 9 9 9 9 9 9 9
20 22 22 21 22 22 22 21 21 22 22 21 21 22 22 21 21 20 20 20 19 19 18 17 16 15 14 13 12 11 11 11 10 10 10 9 9 9 9 9 9 9 9 9 9 9 9 9 9
21 22 21 21 21 22 22 21 21 22 22 22 21 22 22 20 21 20 20 19 19 18 17 16 15 14 13 12 12 11 11 10 10 10 9 9 9 9 9 9 9 9 9 9 9 9 9 9 9
20 22 21 21 21 21 21 20 20 21 22 20 20 22 22 20 20 20 19 19 18 18 17 16 15 14 13 12 11 11 11 10 10 10 9 9 9 9 8 9 9 9 9 9 9 9 9 9 9
19 21 21 21 21 21 21 21 20 19 20 20 19 20 20 20 19 19 19 19 18 18 17 16 14 13 12 12 11 11 10 10 10 9 9 9 9 8 8 8 8 8 8 8 9 9 9 9 9
20 20 21 21 21 21 21 20 20 20 20 20 20 19 19 19 19 18 18 18 18 18 17 16 14 13 12 11 11 11 10 10 10 9 9 9 9 8 8 8 8 8 8 8 8 8 9 8 8
20 20 21 20 19 19 19 19 19 19 21 21 20 19 17 18 18 18 17 17 17 17 17 16 15 13 12 12 11 11 10 10 10 9 9 9 8 8 8 8 8 8 8 8 8 8 8 8 8
20 20 19 19 17 17 18 19 19 18 19 18 17 17 17 17 17 17 17 17 16 16 16 16 15 14 13 11 11 11 10 10 10 9 9 9 9 9 8 8 8 8 8 8 8 8 7 8 8
19 19 18 17 16 16 17 18 18 18 17 16 16 16 16 16 16 17 17 16 16 16 16 16 15 14 13 12 11 11 10 10 10 9 9 9 9 9 8 8 8 8 8 8 8 8 7 8 8
18 18 18 17 17 16 17 18 17 18 16 16 15 15 15 16 16 16 17 17 17 17 16 16 15 14 13 13 12 11 10 10 10 9 9 9 9 9 8 8 8 8 8 8 7 7 7 7 7
16 18 19 18 17 17 17 19 19 17 16 17 16 15 15 15 16 16 17 17 17 17 16 16 15 14 14 13 12 11 10 10 10 10 9 9 9 8 8 8 8 8 8 7 7 7 7 7 7
18 18 19 19 18 17 18 20 19 16 16 17 16 15 15 14 15 16 17 17 17 17 17 16 15 15 14 13 12 11 10 10 10 9 9 9 9 8 8 8 8 7 7 7 7 7 7 7 7
19 19 19 19 18 18 19 19 19 16 16 17 16 15 15 14 15 16 17 17 17 17 17 16 15 14 14 13 12 11 10 10 10 9 9 9 9 8 8 8 7 7 7 7 7 7 6 6 6
19 19 19 19 19 18 18 19 19 17 16 17 16 15 14 14 14 16 16 17 17 17 16 16 15 14 13 12 11 11 10 10 10 9 9 9 9 8 8 8 7 7 7 7 7 7 6 6 6
18 18 18 19 17 17 18 18 18 17 17 17 16 15 15 13 13 15 16 16 16 16 16 15 15 14 13 13 12 11 11 10 10 10 9 9 9 8 8 8 8 7 7 7 7 6 6 6 6
17 17 18 18 16 16 17 18 18 17 17 16 16 15 14 14 13 14 15 15 16 16 15 15 14 14 13 12 12 11 11 10 10 10 10 9 9 9 8 8 8 7 7 7 7 7 6 6 5
17 17 18 18 17 16 16 18 18 17 16 15 15 14 14 13 13 14 14 15 15 15 14 14 14 13 13 12 12 12 11 11 11 10 10 10 9 9 9 8 8 8 7 7 7 7 6 6 5
17 17 16 16 17 19 17 19 19 18 17 17 16 15 14 13 13 13 14 14 14 14 14 13 13 13 12 12 12 11 11 11 10 10 10 10 9 9 9 8 8 8 7 7 7 7 6 6 5
17 15 15 15 16 17 17 18 20 17 17 17 17 15 13 12 12 13 13 13 13 13 13 13 12 12 12 12 11 11 11 10 10 10 10 9 9 9 9 8 8 8 7 7 7 7 6 5 5
15 15 14 15 16 17 18 18 19 18 18 18 17 15 13 12 12 12 13 13 13 12 12 12 12 12 11 11 11 10 10 10 9 9 9 9 8 8 8 8 7 7 7 7 7 6 6 5 5
15 17 18 18 18 19 16 16 19 18 18 18 17 15 13 12 12 11 12 12 12 12 12 11 11 11 11 10 10 10 9 9 8 8 8 8 7 7 7 7 7 6 6 6 6 6 6 5 5
16 17 18 18 19 19 15 17 19 16 15 15 15 14 13 12 11 11 11 11 11 11 11 11 11 10 10 10 9 9 8 8 7 7 7 7 6 6 6 6 6 6 6 6 5 5 5 5 4
16 17 17 18 16 17 18 18 18 15 14 14 14 13 12 12 11 11 11 11 11 11 11 10 10 10 9 9 8 8 8 7 7 6 6 6 6 6 6 6 5 5 5 5 5 4 4 4 3
15 16 16 17 17 17 18 18 19 17 16 15 14 13 12 11 10 10 10 10 10 10 10 10 9 9 9 8 8 7 7 6 6 6 6 5 5 5 5 5 5 5 5 4 4 4 3 3 2
14 15 16 17 17 17 18 19 18 17 16 15 15 13 12 11 10 10 10 10 10 10 9 9 9 8 8 7 7 6 6 6 5 5 5 5 5 4 4 4 4 4 4 3 3 3 2 1 1
16 16 16 17 16 16 17 18 16 16 15 15 14 12 11 10 10 9 9 9 9 9 9 8 8 7 7 6 6 6 5 5 5 5 4 4 4 4 4 3 3 3 3 2 2 1 1 0 0

GEFSSGP_850_meantemp_102.txt.gz
Temperature
18 19 20 20 20 20 22 24 25 24 25 24 24 24 24 24 22 20 20 19 19 19 19 18 17 16 15 14 13 12 12 12 11 11 11 10 10 10 10 10 10 10 10 10 10 10 10 10 11
18 19 20 21 20 20 23 24 24 24 24 24 24 24 24 24 23 21 20 19 19 19 19 18 17 16 15 14 13 12 12 11 11 11 10 10 10 10 10 10 10 10 10 10 10 10 10 11 11
19 19 21 21 21 21 23 24 24 24 24 24 24 24 24 24 23 21 21 20 19 19 19 18 17 16 15 14 13 12 11 11 11 10 10 10 10 10 10 10 10 10 10 10 10 10 11 11 11
19 20 21 21 22 24 24 24 24 24 24 23 24 24 24 23 22 21 21 20 19 19 18 18 17 16 15 14 13 12 11 11 10 10 10 10 10 10 10 10 10 10 10 10 11 11 11 11 11
19 21 21 21 23 25 25 25 24 24 24 24 24 24 23 22 22 21 21 20 19 18 18 18 17 16 15 13 12 12 11 11 10 10 10 10 9 9 10 10 10 10 10 10 10 11 11 11 11
20 22 21 21 23 25 25 24 24 24 24 24 24 24 22 21 21 21 21 20 18 18 17 18 17 16 14 13 12 12 11 11 10 10 10 9 9 9 9 9 10 10 10 10 10 11 11 11 11
21 20 21 22 23 24 24 24 24 23 23 24 24 23 22 20 20 20 20 19 18 17 16 17 16 15 14 13 12 11 11 11 10 10 9 9 9 9 9 9 9 10 10 10 10 11 11 11 11
20 21 21 22 23 23 24 23 23 23 23 23 23 23 21 20 20 19 19 18 17 17 16 16 16 15 14 12 12 11 11 10 10 10 9 9 9 9 9 9 9 9 10 10 10 10 10 10 10
20 20 20 22 22 23 23 23 23 22 22 22 22 22 21 20 20 19 19 18 17 16 15 15 15 14 13 12 11 11 11 10 10 10 9 9 9 9 9 9 9 9 9 10 10 10 10 10 10
21 19 20 22 22 22 22 22 22 22 22 22 22 22 21 20 19 18 18 17 17 16 15 14 14 14 13 12 11 11 11 10 10 10 9 9 9 9 8 9 9 9 9 9 10 10 10 10 10
22 20 21 22 22 21 21 21 21 21 20 21 20 20 19 19 18 18 17 17 17 16 15 14 13 13 12 12 11 11 11 10 10 10 9 9 9 8 8 8 8 9 9 9 9 9 9 9 9
22 21 22 22 21 20 20 20 20 21 21 20 20 19 19 18 18 18 17 17 17 16 15 14 13 13 12 12 11 11 11 10 10 10 9 9 9 8 8 8 8 8 9 9 9 9 9 8 8
21 21 22 21 20 20 20 19 20 20 20 20 19 18 18 18 17 17 17 17 17 16 15 14 13 13 12 12 11 11 11 10 10 10 9 9 9 8 8 8 8 8 8 8 8 8 8 8 8
21 20 21 21 21 20 20 20 20 20 20 19 19 18 18 17 17 17 17 17 16 16 15 14 13 13 12 12 11 11 10 10 10 10 9 9 9 8 8 8 8 8 8 8 8 8 8 8 8
20 19 19 20 21 20 19 18 19 20 20 19 19 18 17 16 16 16 16 16 16 15 15 14 13 12 12 11 11 11 10 10 10 10 9 9 9 9 8 8 8 8 8 8 7 7 7 7 7
20 19 18 21 20 19 18 18 20 20 19 20 19 18 17 16 15 15 15 16 16 15 14 14 13 12 12 11 11 11 10 10 10 9 9 9 9 9 8 8 8 8 8 7 7 7 7 7 7
19 18 19 20 20 20 19 19 19 19 19 19 19 18 17 15 15 15 15 15 15 15 14 14 13 12 11 11 11 10 10 10 10 9 9 9 9 9 8 8 8 8 8 7 7 7 7 7 7
19 20 20 20 20 20 19 19 19 20 20 20 19 18 16 15 14 14 14 14 14 14 14 14 13 12 11 11 10 10 10 10 9 9 9 9 9 9 8 8 8 8 8 7 7 7 7 7 6
19 19 18 20 20 19 18 19 19 20 19 19 19 18 16 15 14 14 14 14 14 14 13 13 13 12 11 11 10 10 10 10 10 10 10 9 9 9 9 8 8 8 8 8 7 7 7 6 6
18 18 18 19 19 19 18 18 19 19 19 19 19 17 16 15 14 13 13 13 13 13 13 13 13 12 12 11 11 10 10 10 10 10 10 9 9 9 9 8 8 8 8 8 7 7 6 6 6
18 17 18 19 19 18 17 17 18 18 19 19 19 17 16 15 14 13 13 13 13 13 13 13 13 12 12 12 11 11 11 10 10 10 10 9 9 9 8 8 8 8 8 7 7 7 6 6 6
17 19 19 18 17 17 18 16 18 17 17 17 18 17 16 15 14 13 13 13 13 13 13 13 13 12 12 12 12 11 11 10 10 9 9 9 9 8 8 8 8 7 7 7 7 6 6 5 5
18 18 18 18 17 16 17 17 17 17 16 16 16 17 16 15 13 13 13 13 13 13 13 13 13 12 12 12 11 11 10 10 9 9 9 9 8 8 8 7 7 7 7 7 6 6 6 5 5
18 17 17 16 15 15 17 17 17 17 17 16 16 17 15 14 13 13 13 13 13 13 13 12 12 12 12 11 11 11 10 10 9 9 8 8 8 7 7 7 7 6 6 6 6 5 5 5 5
17 16 15 15 14 15 19 18 18 19 18 17 17 16 15 14 13 12 12 12 12 12 12 12 12 11 11 11 10 10 10 9 9 8 8 8 7 7 6 6 6 6 6 5 5 5 5 5 4
15 16 16 16 16 17 17 17 18 18 18 19 18 16 15 14 13 12 12 12 12 12 11 11 11 11 11 10 10 9 9 9 8 8 7 7 7 6 6 6 6 6 5 5 5 5 4 4 4
16 16 17 16 17 16 17 18 16 17 16 17 17 16 15 14 13 12 12 11 11 11 11 11 11 10 10 10 9 9 9 8 8 7 7 6 6 6 6 5 5 5 5 5 4 4 4 3 3
16 17 16 15 15 15 18 18 16 15 15 16 15 15 15 14 13 12 11 11 11 10 10 10 10 10 10 9 9 8 8 7 7 7 6 6 6 5 5 5 5 5 4 4 4 3 3 3 2
15 16 16 16 16 16 16 17 17 16 16 15 15 16 15 14 13 12 11 11 10 10 10 10 9 9 9 8 8 8 7 7 6 6 6 5 5 5 5 4 4 4 4 3 3 3 2 2 2
16 16 16 15 16 16 15 16 18 17 17 16 16 16 15 14 13 12 11 10 10 9 9 9 9 8 8 8 7 7 6 6 6 6 5 5 5 5 4 4 4 3 3 3 2 2 1 1 1

GEFSSGP_850_meantemp_108.txt.gz
Temperature
18 19 19 20 17 14 17 18 19 20 21 22 23 22 21 20 20 20 21 20 20 19 18 17 16 15 14 13 13 13 12 12 12 11 11 11 11 10 10 10 10 10 10 10 10 11 11 11 11
18 19 19 19 15 16 17 18 19 21 22 23 23 23 21 21 21 21 21 20 20 19 18 17 16 15 14 14 13 13 12 12 11 11 11 11 11 10 10 10 10 10 11 11 11 11 11 11 11
18 19 19 15 15 16 18 19 19 21 23 23 23 22 21 21 21 21 21 21 20 19 18 18 16 15 14 14 13 12 12 11 11 11 11 11 10 10 10 11 11 11 11 11 11 11 12 12 12
19 19 19 15 17 17 19 19 20 21 22 23 22 21 20 20 21 21 21 20 20 19 18 18 17 15 14 14 13 12 12 11 11 11 11 10 10 10 11 11 11 11 11 11 12 12 12 12 12
19 19 16 16 17 18 18 20 22 20 21 22 22 20 20 20 21 21 20 20 20 19 18 18 17 16 14 13 13 12 12 11 11 11 10 10 10 11 11 11 11 11 11 11 11 12 12 12 12
19 17 15 16 17 19 19 21 21 20 21 21 21 19 19 20 20 20 20 20 19 19 18 17 16 15 14 13 12 12 11 11 11 10 10 10 10 11 11 11 11 11 11 11 11 11 11 12 12
18 15 16 17 17 19 20 21 21 20 20 21 21 19 18 19 19 19 19 19 18 18 18 17 16 15 14 13 12 12 11 11 11 10 10 10 10 10 10 11 11 11 11 11 11 11 11 11 11
19 15 17 16 18 19 20 21 21 21 21 21 21 19 19 19 19 19 18 18 18 17 17 16 16 15 14 12 12 11 11 11 10 10 10 10 10 10 10 10 10 11 11 11 11 11 11 11 11
19 15 16 17 18 19 19 20 21 21 21 21 21 20 20 20 19 18 17 17 17 16 16 16 15 14 13 12 12 11 11 11 10 10 10 10 10 10 10 10 10 10 10 10 10 10 10 10 11
19 15 17 18 19 19 19 19 20 20 20 20 20 20 19 19 18 18 17 17 17 16 16 15 14 14 13 12 11 11 11 10 10 10 10 10 10 9 9 9 9 9 10 10 10 10 10 10 10
18 16 17 19 20 20 19 19 20 19 18 19 19 19 19 18 18 18 17 17 17 17 16 15 14 14 13 12 11 11 11 10 10 10 10 9 9 9 9 9 9 9 9 9 9 9 10 10 10
18 18 19 19 20 19 19 19 19 19 19 20 19 19 19 18 18 18 17 17 16 16 16 15 14 13 13 12 12 11 11 10 10 10 9 9 9 9 9 9 9 8 8 9 9 9 9 9 9
18 18 19 19 19 19 19 19 18 19 19 19 19 18 18 18 18 17 17 17 16 16 16 15 14 13 13 12 12 11 11 10 10 10 9 9 9 9 9 8 8 8 8 8 8 8 8 8 8
18 18 18 19 19 19 18 18 17 19 19 19 18 18 18 18 17 17 17 17 16 16 16 15 14 13 13 12 12 11 11 10 10 10 9 9 9 9 9 8 8 8 8 8 8 8 8 7 7
18 17 16 17 17 18 18 16 16 19 19 18 18 18 17 17 17 17 17 17 17 16 16 15 14 13 13 12 12 11 11 10 10 10 9 9 9 9 9 8 8 8 8 8 7 7 7 7 7
17 16 15 16 17 17 17 16 16 19 18 17 17 17 17 17 17 17 16 16 16 16 15 14 14 13 12 12 11 11 11 10 10 10 9 9 9 9 9 8 8 8 8 8 7 7 7 7 7
15 14 15 16 17 16 16 16 16 18 18 17 17 17 16 16 16 16 16 16 16 16 15 14 13 13 12 12 11 11 10 10 10 9 9 9 9 9 9 8 8 8 8 7 7 7 7 7 7
14 15 15 16 17 16 15 15 15 17 17 16 16 16 16 16 15 15 15 15 15 15 14 14 13 12 12 11 11 10 10 10 10 9 9 9 9 9 8 8 8 8 8 7 7 7 7 6 6
15 15 15 15 16 16 15 15 15 16 15 14 15 15 15 15 15 15 15 15 15 14 14 13 13 12 12 11 11 10 10 10 10 9 9 9 9 9 8 8 8 8 7 7 7 7 7 6 6
15 14 14 15 16 16 15 14 15 14 14 15 15 15 15 14 14 14 14 14 14 14 14 13 13 12 12 11 11 10 10 10 10 9 9 9 9 9 8 8 8 8 7 7 7 6 6 6 6
15 15 15 15 15 15 15 14 14 14 15 15 15 15 15 15 14 14 14 14 14 14 13 13 13 12 11 11 11 10 10 10 9 9 9 9 9 9 8 8 8 7 7 7 6 6 6 5 5
14 15 15 15 14 13 14 13 13 14 13 12 13 13 14 14 14 14 14 13 13 13 13 13 12 12 12 11 11 11 10 10 10 10 9 9 9 8 8 8 7 7 7 6 6 6 5 5 5
15 16 16 15 14 13 13 13 13 13 13 12 11 13 14 14 14 14 14 13 13 13 13 12 12 12 12 11 11 11 11 10 10 10 9 9 8 8 8 7 7 7 6 6 6 5 5 5 5
15 15 14 11 11 12 12 12 12 12 13 13 11 12 13 14 14 14 13 13 12 12 12 12 12 12 12 11 11 11 10 10 10 9 9 9 8 8 7 7 7 6 6 6 5 5 5 5 4
14 13 12 12 11 11 12 12 13 14 13 13 13 12 13 13 13 13 13 13 12 12 12 12 12 12 11 11 11 11 10 10 9 9 9 8 8 7 7 7 6 6 6 5 5 5 5 4 4
13 13 12 12 11 12 13 12 13 14 14 15 15 13 13 13 13 14 13 13 13 12 12 12 12 12 11 11 11 10 10 9 9 8 8 8 7 7 6 6 6 5 5 5 5 4 4 4 3
12 12 12 12 12 12 12 13 14 15 13 13 13 12 12 13 13 14 13 13 13 12 12 12 11 11 11 10 10 10 9 9 8 8 7 7 7 6 6 6 5 5 5 5 4 4 4 3 3
13 12 11 11 12 11 12 13 14 15 14 12 11 11 12 12 13 13 13 13 13 12 12 11 11 11 10 10 10 9 9 8 8 7 7 7 6 6 5 5 5 5 5 4 4 4 3 3 3
13 13 12 11 11 11 12 13 14 14 13 12 11 12 12 13 13 13 13 13 12 12 11 11 10 10 10 9 9 8 8 8 7 7 6 6 6 5 5 5 5 4 4 4 3 3 3 2 2
12 12 12 11 11 10 10 12 14 13 13 12 12 13 13 13 14 13 13 12 12 11 11 10 10 9 9 9 8 8 7 7 7 6 6 6 5 5 4 4 4 4 3 3 3 2 2 2 1

GEFSSGP_850_meantemp_114.txt.gz
Temperature
18 19 19 20 16 13 16 17 17 18 19 20 20 20 18 18 19 20 21 20 19 19 18 16 15 14 13 12 12 12 12 11 11 11 11 11 10 10 10 10 10 10 10 10 10 10 11 11 11
18 19 19 19 14 15 16 17 17 18 20 20 20 20 20 20 20 21 20 20 19 18 18 17 15 14 13 13 12 12 12 11 11 11 11 10 10 10 10 10 10 10 10 11 11 11 11 11 11
18 19 19 14 14 15 18 18 17 19 20 20 20 20 20 20 21 21 20 20 19 18 18 17 15 14 13 13 12 12 11 11 11 11 11 10 10 10 10 10 10 10 11 11 11 11 11 11 11
18 19 18 14 17 16 17 18 18 19 20 20 20 20 20 20 21 20 20 20 19 18 18 17 16 14 13 13 12 12 11 11 11 10 10 10 10 10 10 10 10 10 11 11 11 11 11 11 11
18 18 15 15 17 17 16 18 18 19 19 20 20 19 20 20 20 20 20 20 19 18 17 16 15 14 13 12 12 12 11 11 10 10 10 10 10 10 10 10 10 10 10 10 10 11 11 11 11
18 15 14 15 16 17 17 18 19 19 19 20 19 19 20 20 20 20 20 19 18 18 17 16 15 13 13 12 12 12 11 11 10 10 10 10 10 10 10 10 10 10 10 10 10 10 10 11 11
17 13 15 16 16 17 18 19 19 18 19 19 20 19 20 20 20 20 19 19 18 17 17 16 14 13 12 12 12 11 11 10 10 10 10 10 9 9 10 10 10 10 10 10 10 10 10 10 10
18 14 15 15 16 18 18 19 19 19 19 20 20 19 20 20 20 19 19 18 17 17 16 15 14 13 12 12 11 11 11 10 10 10 10 10 9 9 9 9 9 9 9 10 10 10 10 10 10
18 14 15 16 17 18 18 19 20 19 19 19 20 20 20 20 19 19 18 18 17 16 16 15 14 13 12 11 11 11 11 10 10 10 10 9 9 9 9 9 9 9 9 9 9 9 9 9 9
17 14 16 17 17 18 18 19 19 19 19 19 19 20 20 20 19 19 19 18 18 17 16 15 14 13 12 11 11 11 10 10 10 10 9 9 9 9 9 9 9 9 8 8 8 8 8 9 9
17 15 16 17 18 18 18 18 19 18 17 19 20 20 19 19 19 19 19 19 18 17 16 15 14 13 12 12 11 11 10 10 10 10 9 9 9 9 9 8 8 8 8 8 8 8 8 8 8
16 16 17 18 19 18 18 18 18 18 19 19 19 19 19 19 19 18 18 18 17 17 16 15 14 13 12 12 11 11 10 10 10 9 9 9 9 9 8 8 8 8 8 8 7 7 7 7 7
16 16 17 18 18 18 18 17 17 18 19 19 18 18 18 18 18 18 18 17 17 16 16 15 14 13 12 12 11 11 10 10 10 9 9 9 9 9 8 8 8 8 8 8 7 7 7 7 7
16 17 17 17 17 17 16 16 16 18 19 18 18 18 18 18 18 17 17 17 17 16 16 15 14 13 12 12 11 11 11 10 10 10 9 9 9 9 9 8 8 8 8 8 7 7 7 7 7
16 15 15 16 16 16 16 15 14 18 18 18 18 18 18 18 17 17 17 17 17 16 16 15 14 13 12 12 12 11 11 10 10 10 9 9 9 9 9 8 8 8 8 8 7 7 7 7 7
15 14 14 15 15 16 16 15 15 18 17 17 18 18 18 17 17 17 17 17 16 16 16 15 14 13 13 12 11 11 11 10 10 10 9 9 9 9 9 8 8 8 8 8 7 7 7 7 7
14 13 14 14 15 15 15 14 15 17 16 16 17 17 17 17 17 17 17 16 16 16 16 15 14 14 13 12 11 11 11 10 10 10 9 9 9 9 9 8 8 8 8 8 7 7 7 7 7
13 13 13 14 14 15 14 13 14 16 15 15 16 16 17 17 17 17 16 16 16 16 16 15 14 13 13 12 11 11 10 10 10 10 9 9 9 9 9 8 8 8 8 7 7 7 7 7 7
14 13 13 13 14 14 13 13 14 15 14 14 14 15 16 16 16 16 16 16 16 16 15 15 14 13 12 12 11 11 10 10 10 10 9 9 9 9 9 8 8 8 8 7 7 7 7 7 6
13 13 12 12 13 13 12 12 13 12 13 14 15 15 16 16 16 16 16 16 15 15 15 14 14 13 12 12 11 11 10 10 10 10 9 9 9 9 9 8 8 8 7 7 7 7 6 6 6
12 12 12 13 13 13 12 12 12 13 13 14 14 16 16 16 16 16 15 15 15 15 14 14 13 13 12 11 11 11 10 10 10 9 9 9 9 9 8 8 8 8 7 7 7 6 6 6 5
12 12 12 13 12 11 12 11 12 12 12 12 13 13 15 15 16 15 15 15 15 14 14 13 13 12 12 11 11 11 10 10 10 9 9 9 9 8 8 8 8 7 7 7 6 6 6 5 5
12 13 13 13 12 11 11 11 12 12 12 13 12 13 14 15 15 15 15 15 14 14 13 13 13 12 12 11 11 11 10 10 10 10 9 9 9 8 8 8 8 7 7 7 6 6 6 5 5
13 12 11 9 10 10 11 10 11 11 13 13 12 13 14 14 14 14 14 14 14 13 13 13 13 12 12 11 11 11 10 10 10 10 9 9 9 8 8 8 7 7 7 6 6 6 5 5 5
12 12 11 11 10 10 10 10 11 12 12 12 12 13 14 14 14 14 14 14 13 13 13 13 13 12 12 11 11 11 10 10 10 10 9 9 9 8 8 7 7 7 6 6 6 5 5 5 4
11 12 11 11 11 10 10 9 11 12 12 13 13 13 14 13 14 14 14 14 13 13 13 13 12 12 12 11 11 11 10 10 10 9 9 9 8 8 7 7 7 6 6 6 5 5 5 4 4
11 11 11 10 10 10 10 10 11 13 13 12 12 12 12 13 14 14 14 14 13 13 13 13 12 12 12 11 11 10 10 10 10 9 9 8 8 7 7 7 6 6 5 5 5 5 4 4 4
11 10 9 10 10 10 10 10 12 14 14 12 11 11 12 13 13 14 14 14 13 13 13 12 12 12 11 11 11 10 10 9 9 9 8 8 7 7 7 6 6 5 5 5 4 4 4 3 3
10 10 10 9 9 10 10 11 12 12 13 12 11 12 13 13 14 14 14 14 13 13 12 12 12 11 11 11 10 10 9 9 9 8 8 7 7 7 6 6 5 5 5 4 4 4 3 3 3
11 10 10 10 9 8 8 11 13 12 11 11 12 14 14 14 14 14 14 13 13 13 12 12 12 11 11 10 10 9 9 9 8 8 7 7 7 6 6 5 5 4 4 4 3 3 3 2 2